Time,TemperatureF,DewpointF,PressureIn,WindDirection,WindDirectionDegrees,WindSpeedMPH,WindSpeedGustMPH,Humidity,HourlyPrecipIn,Conditions,Clouds,dailyrainin,SoftwareType,DateUTC
2013-09-28 00:01:00,63.8,51.8,30.23,North,8,6.0,13.0,65,0.00,,---,0.00,VWS V14.01,2013-09-28 04:01:00,
2013-09-28 00:02:00,63.8,51.8,30.23,NNE,20,3.0,8.0,65,0.00,,---,0.00,VWS V14.01,2013-09-28 04:02:00,
2013-09-28 00:07:00,63.9,51.9,30.23,NNE,14,5.0,8.0,65,0.00,,---,0.00,VWS V14.01,2013-09-28 04:07:00,
2013-09-28 00:12:00,63.8,51.8,30.23,NE,39,2.0,8.0,65,0.00,,---,0.00,VWS V14.01,2013-09-28 04:12:00,
2013-09-28 00:17:00,63.8,52.2,30.22,NNE,19,2.0,8.0,66,0.00,,---,0.00,VWS V14.01,2013-09-28 04:17:00,
2013-09-28 00:22:00,63.7,52.1,30.23,NNE,13,2.0,8.0,66,0.00,,---,0.00,VWS V14.01,2013-09-28 04:22:00,
2013-09-28 00:27:00,63.7,52.1,30.22,ENE,57,4.0,8.0,66,0.00,,---,0.00,VWS V14.01,2013-09-28 04:27:00,
2013-09-28 00:32:00,63.7,51.7,30.22,NNW,335,2.0,4.0,65,0.00,,---,0.00,VWS V14.01,2013-09-28 04:32:00,
2013-09-28 00:37:00,63.7,52.1,30.22,NE,40,3.0,5.0,66,0.00,,---,0.00,VWS V14.01,2013-09-28 04:37:00,
2013-09-28 00:42:00,63.7,52.1,30.22,NNE,32,5.0,6.0,66,0.00,,---,0.00,VWS V14.01,2013-09-28 04:42:00,
2013-09-28 00:47:00,63.8,53.5,30.22,NE,47,3.0,7.0,69,0.00,,---,0.00,VWS V14.01,2013-09-28 04:47:00,
2013-09-28 00:52:00,63.8,52.7,30.22,ENE,68,6.0,9.0,67,0.00,,---,0.00,VWS V14.01,2013-09-28 04:52:00,
2013-09-28 00:57:00,63.8,52.2,30.22,NE,34,4.0,9.0,66,0.00,,---,0.00,VWS V14.01,2013-09-28 04:57:00,
2013-09-28 01:02:00,63.8,52.2,30.22,NNE,20,5.0,5.0,66,0.00,,---,0.00,VWS V14.01,2013-09-28 05:02:00,
2013-09-28 01:07:00,63.8,52.2,30.22,NNE,22,2.0,7.0,66,0.00,,---,0.00,VWS V14.01,2013-09-28 05:07:00,
2013-09-28 01:12:00,63.8,52.2,30.22,NE,48,6.0,7.0,66,0.00,,---,0.00,VWS V14.01,2013-09-28 05:12:00,
2013-09-28 01:17:00,63.7,52.5,30.22,NNE,17,4.0,7.0,67,0.00,,---,0.00,VWS V14.01,2013-09-28 05:17:00,
2013-09-28 01:22:00,63.7,53.0,30.22,NNE,18,3.0,7.0,68,0.00,,---,0.00,VWS V14.01,2013-09-28 05:22:00,
2013-09-28 01:27:00,63.7,53.3,30.22,NNE,28,1.0,7.0,69,0.00,,---,0.00,VWS V14.01,2013-09-28 05:27:00,
2013-09-28 01:32:00,63.7,54.1,30.22,NNE,31,7.0,7.0,71,0.00,,---,0.00,VWS V14.01,2013-09-28 05:32:00,
2013-09-28 01:37:00,63.8,54.2,30.22,NE,37,3.0,9.0,71,0.00,,---,0.00,VWS V14.01,2013-09-28 05:37:00,
2013-09-28 01:42:00,63.8,54.6,30.22,NNE,31,5.0,9.0,72,0.00,,---,0.00,VWS V14.01,2013-09-28 05:42:00,
2013-09-28 01:48:00,63.9,55.1,30.22,NNE,32,8.0,11.0,73,0.00,,---,0.00,VWS V14.01,2013-09-28 05:48:00,
2013-09-28 01:52:00,64.0,55.2,30.22,NE,56,6.0,11.0,73,0.00,,---,0.00,VWS V14.01,2013-09-28 05:52:00,
2013-09-28 01:58:00,64.0,54.8,30.22,ENE,71,6.0,12.0,72,0.00,,---,0.00,VWS V14.01,2013-09-28 05:58:00,
2013-09-28 02:03:00,64.1,55.3,30.22,NNE,15,5.0,8.0,73,0.00,,---,0.00,VWS V14.01,2013-09-28 06:03:00,
2013-09-28 02:08:00,64.1,55.3,30.21,NNE,13,6.0,13.0,73,0.00,,---,0.00,VWS V14.01,2013-09-28 06:08:00,
2013-09-28 02:13:00,64.1,55.7,30.21,NE,36,7.0,13.0,74,0.00,,---,0.00,VWS V14.01,2013-09-28 06:13:00,
2013-09-28 02:18:00,64.1,55.3,30.21,NNE,25,8.0,13.0,73,0.00,,---,0.00,VWS V14.01,2013-09-28 06:18:00,
2013-09-28 02:23:00,64.1,55.7,30.21,ENE,66,4.0,13.0,74,0.00,,---,0.00,VWS V14.01,2013-09-28 06:23:00,
2013-09-28 02:28:00,64.0,55.6,30.21,NNE,28,4.0,13.0,74,0.00,,---,0.00,VWS V14.01,2013-09-28 06:28:00,
2013-09-28 02:33:00,64.0,55.6,30.21,NE,44,5.0,9.0,74,0.00,,---,0.00,VWS V14.01,2013-09-28 06:33:00,
2013-09-28 02:38:00,64.0,55.9,30.21,ENE,78,8.0,11.0,75,0.00,,---,0.00,VWS V14.01,2013-09-28 06:38:00,
2013-09-28 02:43:00,64.0,56.3,30.21,NE,34,8.0,12.0,76,0.00,,---,0.00,VWS V14.01,2013-09-28 06:43:00,
2013-09-28 02:48:00,64.0,56.7,30.20,NNE,23,9.0,12.0,77,0.00,,---,0.00,VWS V14.01,2013-09-28 06:48:00,
2013-09-28 02:53:00,64.0,57.0,30.20,NE,51,11.0,13.0,78,0.00,,---,0.00,VWS V14.01,2013-09-28 06:53:00,
2013-09-28 02:58:00,63.9,56.9,30.21,NNE,33,11.0,13.0,78,0.00,,---,0.00,VWS V14.01,2013-09-28 06:58:00,
2013-09-28 03:03:00,63.7,56.7,30.20,NNE,25,6.0,15.0,78,0.00,,---,0.00,VWS V14.01,2013-09-28 07:03:00,
2013-09-28 03:08:00,63.5,55.8,30.21,NE,56,8.0,15.0,76,0.00,,---,0.00,VWS V14.01,2013-09-28 07:08:00,
2013-09-28 03:13:00,63.7,56.4,30.21,NE,44,5.0,15.0,77,0.00,,---,0.00,VWS V14.01,2013-09-28 07:13:00,
2013-09-28 03:18:00,63.7,56.4,30.20,NE,37,6.0,15.0,77,0.00,,---,0.00,VWS V14.01,2013-09-28 07:18:00,
2013-09-28 03:23:00,63.7,56.4,30.20,East,82,9.0,15.0,77,0.00,,---,0.00,VWS V14.01,2013-09-28 07:23:00,
2013-09-28 03:28:00,63.8,56.8,30.20,ENE,70,5.0,15.0,78,0.00,,---,0.00,VWS V14.01,2013-09-28 07:28:00,
2013-09-28 03:33:00,63.8,56.8,30.20,NE,49,9.0,12.0,78,0.00,,---,0.00,VWS V14.01,2013-09-28 07:33:00,
2013-09-28 03:38:00,63.8,56.8,30.20,NE,56,8.0,13.0,78,0.00,,---,0.00,VWS V14.01,2013-09-28 07:38:00,
2013-09-28 03:43:00,63.8,56.8,30.20,NNE,31,4.0,13.0,78,0.00,,---,0.00,VWS V14.01,2013-09-28 07:43:00,
2013-09-28 03:48:00,63.9,57.3,30.20,North,356,7.0,13.0,79,0.00,,---,0.00,VWS V14.01,2013-09-28 07:48:00,
2013-09-28 03:53:00,63.9,57.3,30.20,NE,44,4.0,13.0,79,0.00,,---,0.00,VWS V14.01,2013-09-28 07:53:00,
2013-09-28 03:58:00,63.8,56.8,30.20,NE,38,9.0,13.0,78,0.00,,---,0.00,VWS V14.01,2013-09-28 07:58:00,
2013-09-28 04:03:00,63.9,56.9,30.20,East,94,5.0,10.0,78,0.00,,---,0.00,VWS V14.01,2013-09-28 08:03:00,
2013-09-28 04:08:00,63.9,57.3,30.20,East,89,7.0,13.0,79,0.00,,---,0.00,VWS V14.01,2013-09-28 08:08:00,
2013-09-28 04:13:00,64.0,57.4,30.20,ESE,102,9.0,13.0,79,0.00,,---,0.00,VWS V14.01,2013-09-28 08:13:00,
2013-09-28 04:18:00,63.9,57.3,30.21,NNE,23,9.0,13.0,79,0.00,,---,0.00,VWS V14.01,2013-09-28 08:18:00,
2013-09-28 04:23:00,63.7,57.4,30.21,West,263,7.0,13.0,80,0.00,,---,0.00,VWS V14.01,2013-09-28 08:23:00,
2013-09-28 04:28:00,63.2,57.3,30.21,NE,43,9.0,13.0,81,0.00,,---,0.00,VWS V14.01,2013-09-28 08:28:00,
2013-09-28 04:33:00,62.9,57.7,30.21,NE,44,11.0,11.0,83,0.00,,---,0.00,VWS V14.01,2013-09-28 08:33:00,
2013-09-28 04:38:00,63.0,57.1,30.21,ENE,77,10.0,13.0,81,0.00,,---,0.00,VWS V14.01,2013-09-28 08:38:00,
2013-09-28 04:43:00,62.9,56.6,30.21,ENE,69,5.0,14.0,80,0.00,,---,0.00,VWS V14.01,2013-09-28 08:43:00,
2013-09-28 04:48:00,62.9,57.0,30.21,NNE,20,10.0,14.0,81,0.00,,---,0.00,VWS V14.01,2013-09-28 08:48:00,
2013-09-28 04:53:00,62.8,56.5,30.21,NNE,16,5.0,14.0,80,0.00,,---,0.00,VWS V14.01,2013-09-28 08:53:00,
2013-09-28 04:58:00,62.7,56.5,30.22,NNE,15,10.0,14.0,80,0.00,,---,0.00,VWS V14.01,2013-09-28 08:58:00,
2013-09-28 05:03:00,62.6,56.0,30.22,NNE,22,10.0,14.0,79,0.00,,---,0.00,VWS V14.01,2013-09-28 09:03:00,
2013-09-28 05:08:00,62.5,55.9,30.22,NNE,24,7.0,14.0,79,0.00,,---,0.00,VWS V14.01,2013-09-28 09:08:00,
2013-09-28 05:13:00,62.5,56.2,30.22,NNE,26,7.0,14.0,80,0.00,,---,0.00,VWS V14.01,2013-09-28 09:13:00,
2013-09-28 05:18:00,62.4,55.8,30.22,NE,50,7.0,15.0,79,0.00,,---,0.00,VWS V14.01,2013-09-28 09:18:00,
2013-09-28 05:23:00,62.4,56.2,30.22,ESE,105,8.0,15.0,80,0.00,,---,0.00,VWS V14.01,2013-09-28 09:23:00,
2013-09-28 05:28:00,62.6,56.3,30.22,NNE,15,9.0,15.0,80,0.00,,---,0.00,VWS V14.01,2013-09-28 09:28:00,
2013-09-28 05:33:00,62.5,56.6,30.22,NNE,33,5.0,8.0,81,0.00,,---,0.00,VWS V14.01,2013-09-28 09:33:00,
2013-09-28 05:38:00,62.4,56.5,30.22,NE,38,7.0,12.0,81,0.00,,---,0.00,VWS V14.01,2013-09-28 09:38:00,
2013-09-28 05:43:00,62.5,55.9,30.22,NNE,33,10.0,13.0,79,0.00,,---,0.00,VWS V14.01,2013-09-28 09:43:00,
2013-09-28 05:48:00,62.4,55.1,30.22,NNE,15,8.0,13.0,77,0.00,,---,0.00,VWS V14.01,2013-09-28 09:48:00,
2013-09-28 05:53:00,62.4,54.4,30.22,NNE,26,5.0,14.0,75,0.00,,---,0.00,VWS V14.01,2013-09-28 09:53:00,
2013-09-28 05:58:00,62.5,54.5,30.23,ENE,75,8.0,14.0,75,0.00,,---,0.00,VWS V14.01,2013-09-28 09:58:00,
2013-09-28 06:03:00,62.5,54.5,30.23,NNE,21,5.0,11.0,75,0.00,,---,0.00,VWS V14.01,2013-09-28 10:03:00,
2013-09-28 06:08:00,62.5,54.5,30.23,ENE,57,7.0,12.0,75,0.00,,---,0.00,VWS V14.01,2013-09-28 10:08:00,
2013-09-28 06:13:00,62.4,54.4,30.23,NE,44,11.0,12.0,75,0.00,,---,0.00,VWS V14.01,2013-09-28 10:13:00,
2013-09-28 06:18:00,62.3,53.9,30.23,NNE,32,7.0,13.0,74,0.00,,---,0.00,VWS V14.01,2013-09-28 10:18:00,
2013-09-28 06:23:00,62.3,54.3,30.23,NNE,18,7.0,15.0,75,0.00,,---,0.00,VWS V14.01,2013-09-28 10:23:00,
2013-09-28 06:28:00,62.3,53.9,30.23,NNE,15,9.0,15.0,74,0.00,,---,0.00,VWS V14.01,2013-09-28 10:28:00,
2013-09-28 06:33:00,62.4,53.6,30.24,North,8,10.0,12.0,73,0.00,,---,0.00,VWS V14.01,2013-09-28 10:33:00,
2013-09-28 06:38:00,62.4,53.6,30.24,NE,47,10.0,12.0,73,0.00,,---,0.00,VWS V14.01,2013-09-28 10:38:00,
2013-09-28 06:44:00,62.4,54.4,30.24,NNE,17,3.0,12.0,75,0.00,,---,0.00,VWS V14.01,2013-09-28 10:44:00,
2013-09-28 06:49:00,62.2,53.8,30.24,NE,53,12.0,12.0,74,0.00,,---,0.00,VWS V14.01,2013-09-28 10:49:00,
2013-09-28 06:54:00,62.4,54.4,30.24,NNE,18,9.0,12.0,75,0.00,,---,0.00,VWS V14.01,2013-09-28 10:54:00,
2013-09-28 06:59:00,62.4,54.4,30.24,NNE,12,7.0,12.0,75,0.00,,---,0.00,VWS V14.01,2013-09-28 10:59:00,
2013-09-28 07:04:00,62.5,54.5,30.25,ENE,67,13.0,15.0,75,0.00,,---,0.00,VWS V14.01,2013-09-28 11:04:00,
2013-09-28 07:09:00,62.8,54.8,30.25,NNE,12,10.0,15.0,75,0.00,,---,0.00,VWS V14.01,2013-09-28 11:09:00,
2013-09-28 07:14:00,63.0,54.2,30.25,NNE,17,8.0,15.0,73,0.00,,---,0.00,VWS V14.01,2013-09-28 11:14:00,
2013-09-28 07:19:00,63.4,55.7,30.25,NNW,346,8.0,15.0,76,0.00,,---,0.00,VWS V14.01,2013-09-28 11:19:00,
2013-09-28 07:24:00,63.6,55.2,30.25,East,96,8.0,15.0,74,0.00,,---,0.00,VWS V14.01,2013-09-28 11:24:00,
2013-09-28 07:29:00,63.8,55.0,30.25,North,8,9.0,15.0,73,0.00,,---,0.00,VWS V14.01,2013-09-28 11:29:00,
2013-09-28 07:34:00,63.9,55.1,30.25,North,4,8.0,12.0,73,0.00,,---,0.00,VWS V14.01,2013-09-28 11:34:00,
2013-09-28 07:39:00,64.1,54.5,30.25,NNE,29,10.0,14.0,71,0.00,,---,0.00,VWS V14.01,2013-09-28 11:39:00,
2013-09-28 07:44:00,64.1,54.9,30.25,NNE,30,10.0,17.0,72,0.00,,---,0.00,VWS V14.01,2013-09-28 11:44:00,
2013-09-28 07:49:00,64.4,55.2,30.25,NE,39,9.0,17.0,72,0.00,,---,0.00,VWS V14.01,2013-09-28 11:49:00,
2013-09-28 07:54:00,64.5,55.3,30.26,NE,56,9.0,17.0,72,0.00,,---,0.00,VWS V14.01,2013-09-28 11:54:00,
2013-09-28 07:59:00,64.6,55.0,30.26,ENE,63,7.0,17.0,71,0.00,,---,0.00,VWS V14.01,2013-09-28 11:59:00,
2013-09-28 08:04:00,64.6,55.4,30.26,NE,41,8.0,14.0,72,0.00,,---,0.00,VWS V14.01,2013-09-28 12:04:00,
2013-09-28 08:09:00,64.9,55.7,30.26,East,79,6.0,14.0,72,0.00,,---,0.00,VWS V14.01,2013-09-28 12:09:00,
2013-09-28 08:14:00,65.0,55.0,30.26,NE,37,6.0,14.0,70,0.00,,---,0.00,VWS V14.01,2013-09-28 12:14:00,
2013-09-28 08:19:00,65.0,55.0,30.26,SE,129,7.0,14.0,70,0.00,,---,0.00,VWS V14.01,2013-09-28 12:19:00,
2013-09-28 08:24:00,65.1,55.5,30.26,ENE,63,9.0,15.0,71,0.00,,---,0.00,VWS V14.01,2013-09-28 12:24:00,
2013-09-28 08:29:00,65.2,54.8,30.26,East,87,8.0,15.0,69,0.00,,---,0.00,VWS V14.01,2013-09-28 12:29:00,
2013-09-28 08:34:00,65.3,54.9,30.26,East,79,10.0,13.0,69,0.00,,---,0.00,VWS V14.01,2013-09-28 12:34:00,
2013-09-28 08:39:00,65.0,55.0,30.26,ENE,59,11.0,14.0,70,0.00,,---,0.00,VWS V14.01,2013-09-28 12:39:00,
2013-09-28 08:44:00,65.5,54.7,30.26,ENE,70,10.0,14.0,68,0.00,,---,0.00,VWS V14.01,2013-09-28 12:44:00,
2013-09-28 08:49:00,65.3,54.9,30.27,North,11,12.0,14.0,69,0.00,,---,0.00,VWS V14.01,2013-09-28 12:49:00,
2013-09-28 08:54:00,65.0,54.6,30.27,ESE,115,6.0,15.0,69,0.00,,---,0.00,VWS V14.01,2013-09-28 12:54:00,
2013-09-28 08:59:00,64.8,54.8,30.27,NNE,31,8.0,15.0,70,0.00,,---,0.00,VWS V14.01,2013-09-28 12:59:00,
2013-09-28 09:04:00,64.8,54.8,30.27,NW,319,3.0,13.0,70,0.00,,---,0.00,VWS V14.01,2013-09-28 13:04:00,
2013-09-28 09:09:00,64.7,55.5,30.27,East,84,10.0,13.0,72,0.00,,---,0.00,VWS V14.01,2013-09-28 13:09:00,
2013-09-28 09:14:00,64.6,56.1,30.27,East,96,5.0,13.0,74,0.00,,---,0.00,VWS V14.01,2013-09-28 13:14:00,
2013-09-28 09:19:00,64.7,55.9,30.27,East,99,10.0,13.0,73,0.00,,---,0.00,VWS V14.01,2013-09-28 13:19:00,
2013-09-28 09:24:00,64.6,55.8,30.27,ENE,75,8.0,14.0,73,0.00,,---,0.00,VWS V14.01,2013-09-28 13:24:00,
2013-09-28 09:29:00,64.8,56.7,30.27,NNE,30,13.0,14.0,75,0.00,,---,0.00,VWS V14.01,2013-09-28 13:29:00,
2013-09-28 09:34:00,64.8,56.0,30.27,East,79,7.0,11.0,73,0.00,,---,0.00,VWS V14.01,2013-09-28 13:34:00,
2013-09-28 09:39:00,64.9,56.0,30.27,NE,44,6.0,12.0,73,0.00,,---,0.00,VWS V14.01,2013-09-28 13:39:00,
2013-09-28 09:44:00,64.9,56.0,30.28,NE,56,9.0,12.0,73,0.00,,---,0.00,VWS V14.01,2013-09-28 13:44:00,
2013-09-28 09:49:00,64.8,56.7,30.28,NE,37,8.0,14.0,75,0.00,,---,0.00,VWS V14.01,2013-09-28 13:49:00,
2013-09-28 09:54:00,64.9,56.4,30.28,North,354,6.0,14.0,74,0.00,,---,0.00,VWS V14.01,2013-09-28 13:54:00,
2013-09-28 09:59:00,65.2,56.7,30.28,NNE,28,5.0,14.0,74,0.00,,---,0.00,VWS V14.01,2013-09-28 13:59:00,
2013-09-28 10:04:00,64.9,56.4,30.28,NNE,18,11.0,14.0,74,0.00,,---,0.00,VWS V14.01,2013-09-28 14:04:00,
2013-09-28 10:09:00,64.7,56.2,30.28,North,1,7.0,14.0,74,0.00,,---,0.00,VWS V14.01,2013-09-28 14:09:00,
2013-09-28 10:14:00,65.2,56.3,30.28,NNE,14,10.0,14.0,73,0.00,,---,0.00,VWS V14.01,2013-09-28 14:14:00,
2013-09-28 10:19:00,65.9,56.6,30.28,NNW,348,9.0,14.0,72,0.00,,---,0.00,VWS V14.01,2013-09-28 14:19:00,
2013-09-28 10:24:00,66.5,57.2,30.28,ENE,66,10.0,16.0,72,0.00,,---,0.00,VWS V14.01,2013-09-28 14:24:00,
2013-09-28 10:29:00,66.6,56.5,30.29,NNE,15,8.0,16.0,70,0.00,,---,0.00,VWS V14.01,2013-09-28 14:29:00,
2013-09-28 10:34:00,66.5,57.2,30.29,ENE,68,9.0,14.0,72,0.00,,---,0.00,VWS V14.01,2013-09-28 14:34:00,
2013-09-28 10:39:00,66.7,56.2,30.29,NE,50,7.0,14.0,69,0.00,,---,0.00,VWS V14.01,2013-09-28 14:39:00,
2013-09-28 10:44:00,66.9,55.6,30.29,NNE,23,13.0,16.0,67,0.00,,---,0.00,VWS V14.01,2013-09-28 14:44:00,
2013-09-28 10:49:00,66.4,55.1,30.29,NE,35,6.0,16.0,67,0.00,,---,0.00,VWS V14.01,2013-09-28 14:49:00,
2013-09-28 10:55:00,65.7,55.7,30.29,East,87,4.0,16.0,70,0.00,,---,0.00,VWS V14.01,2013-09-28 14:55:00,
2013-09-28 11:00:00,66.1,56.0,30.29,East,100,7.0,16.0,70,0.00,,---,0.00,VWS V14.01,2013-09-28 15:00:00,
2013-09-28 11:05:00,66.1,55.2,30.29,NNE,33,9.0,13.0,68,0.00,,---,0.00,VWS V14.01,2013-09-28 15:05:00,
2013-09-28 11:10:00,66.2,56.1,30.29,NNE,27,10.0,13.0,70,0.00,,---,0.00,VWS V14.01,2013-09-28 15:10:00,
2013-09-28 11:15:00,65.8,55.4,30.29,NNE,22,7.0,14.0,69,0.00,,---,0.00,VWS V14.01,2013-09-28 15:15:00,
2013-09-28 11:20:00,67.0,56.1,30.29,North,360,10.0,14.0,68,0.00,,---,0.00,VWS V14.01,2013-09-28 15:20:00,
2013-09-28 11:25:00,67.3,56.0,30.29,NE,54,6.0,16.0,67,0.00,,---,0.00,VWS V14.01,2013-09-28 15:25:00,
2013-09-28 11:30:00,67.4,56.1,30.29,NE,44,8.0,16.0,67,0.00,,---,0.00,VWS V14.01,2013-09-28 15:30:00,
2013-09-28 11:35:00,67.2,55.9,30.28,ENE,68,4.0,14.0,67,0.00,,---,0.00,VWS V14.01,2013-09-28 15:35:00,
2013-09-28 11:40:00,67.5,56.2,30.28,North,356,14.0,15.0,67,0.00,,---,0.00,VWS V14.01,2013-09-28 15:40:00,
2013-09-28 11:45:00,67.5,55.8,30.28,ENE,61,9.0,15.0,66,0.00,,---,0.00,VWS V14.01,2013-09-28 15:45:00,
2013-09-28 11:50:00,67.6,55.4,30.28,ENE,64,9.0,15.0,65,0.00,,---,0.00,VWS V14.01,2013-09-28 15:50:00,
2013-09-28 11:55:00,67.7,56.4,30.28,ESE,108,5.0,15.0,67,0.00,,---,0.00,VWS V14.01,2013-09-28 15:55:00,
2013-09-28 12:00:00,67.6,56.3,30.28,North,1,10.0,15.0,67,0.00,,---,0.00,VWS V14.01,2013-09-28 16:00:00,
2013-09-28 12:05:00,67.7,55.5,30.28,NE,34,12.0,13.0,65,0.00,,---,0.00,VWS V14.01,2013-09-28 16:05:00,
2013-09-28 12:10:00,67.5,56.2,30.28,SSE,163,6.0,16.0,67,0.00,,---,0.00,VWS V14.01,2013-09-28 16:10:00,
2013-09-28 12:15:00,68.0,56.2,30.28,ESE,105,3.0,16.0,66,0.00,,---,0.00,VWS V14.01,2013-09-28 16:15:00,
2013-09-28 12:20:00,67.5,55.3,30.28,NNE,32,10.0,16.0,65,0.00,,---,0.00,VWS V14.01,2013-09-28 16:20:00,
2013-09-28 12:25:00,67.2,55.9,30.28,NNE,23,7.0,16.0,67,0.00,,---,0.00,VWS V14.01,2013-09-28 16:25:00,
2013-09-28 12:30:00,67.9,55.7,30.28,ESE,105,8.0,16.0,65,0.00,,---,0.00,VWS V14.01,2013-09-28 16:30:00,
2013-09-28 12:35:00,68.0,56.2,30.27,ENE,66,8.0,13.0,66,0.00,,---,0.00,VWS V14.01,2013-09-28 16:35:00,
2013-09-28 12:40:00,68.0,56.7,30.27,NNE,23,9.0,13.0,67,0.00,,---,0.00,VWS V14.01,2013-09-28 16:40:00,
2013-09-28 12:45:00,67.6,57.1,30.27,ENE,65,8.0,14.0,69,0.00,,---,0.00,VWS V14.01,2013-09-28 16:45:00,
2013-09-28 12:50:00,66.9,56.4,30.27,NE,42,9.0,14.0,69,0.00,,---,0.00,VWS V14.01,2013-09-28 16:50:00,
2013-09-28 12:55:00,67.2,57.1,30.27,NE,49,10.0,17.0,70,0.00,,---,0.00,VWS V14.01,2013-09-28 16:55:00,
2013-09-28 13:00:00,67.3,56.4,30.27,NE,46,7.0,17.0,68,0.00,,---,0.00,VWS V14.01,2013-09-28 17:00:00,
2013-09-28 13:05:00,67.9,57.4,30.26,NE,42,11.0,13.0,69,0.00,,---,0.00,VWS V14.01,2013-09-28 17:05:00,
2013-09-28 13:10:00,67.9,56.1,30.26,North,10,5.0,14.0,66,0.00,,---,0.00,VWS V14.01,2013-09-28 17:10:00,
2013-09-28 13:15:00,67.3,56.4,30.26,NNE,33,11.0,17.0,68,0.00,,---,0.00,VWS V14.01,2013-09-28 17:15:00,
2013-09-28 13:20:00,67.7,56.0,30.26,NNE,20,5.0,17.0,66,0.00,,---,0.00,VWS V14.01,2013-09-28 17:20:00,
2013-09-28 13:25:00,67.8,56.0,30.26,ENE,60,9.0,17.0,66,0.00,,---,0.00,VWS V14.01,2013-09-28 17:25:00,
2013-09-28 13:30:00,67.3,56.0,30.26,NE,39,11.0,17.0,67,0.00,,---,0.00,VWS V14.01,2013-09-28 17:30:00,
2013-09-28 13:35:00,67.5,56.6,30.26,NE,39,9.0,16.0,68,0.00,,---,0.00,VWS V14.01,2013-09-28 17:35:00,
2013-09-28 13:40:00,67.4,55.2,30.26,North,11,10.0,16.0,65,0.00,,---,0.00,VWS V14.01,2013-09-28 17:40:00,
2013-09-28 13:45:00,67.5,55.8,30.25,North,6,5.0,16.0,66,0.00,,---,0.00,VWS V14.01,2013-09-28 17:45:00,
2013-09-28 13:50:00,67.7,55.5,30.25,NE,34,10.0,16.0,65,0.00,,---,0.00,VWS V14.01,2013-09-28 17:50:00,
2013-09-28 13:55:00,67.6,55.8,30.25,ENE,59,6.0,16.0,66,0.00,,---,0.00,VWS V14.01,2013-09-28 17:55:00,
2013-09-28 14:01:00,67.7,56.0,30.25,ENE,73,15.0,16.0,66,0.00,,---,0.00,VWS V14.01,2013-09-28 18:01:00,
2013-09-28 14:06:00,67.6,55.4,30.25,ENE,57,7.0,17.0,65,0.00,,---,0.00,VWS V14.01,2013-09-28 18:06:00,
2013-09-28 14:11:00,67.9,55.7,30.25,East,80,11.0,17.0,65,0.00,,---,0.00,VWS V14.01,2013-09-28 18:11:00,
2013-09-28 14:16:00,67.8,55.6,30.25,ENE,74,8.0,17.0,65,0.00,,---,0.00,VWS V14.01,2013-09-28 18:16:00,
2013-09-28 14:21:00,67.7,55.5,30.25,North,3,6.0,17.0,65,0.00,,---,0.00,VWS V14.01,2013-09-28 18:21:00,
2013-09-28 14:26:00,67.5,55.8,30.25,NNE,25,9.0,17.0,66,0.00,,---,0.00,VWS V14.01,2013-09-28 18:26:00,
2013-09-28 14:31:00,67.9,55.3,30.25,North,11,12.0,17.0,64,0.00,,---,0.00,VWS V14.01,2013-09-28 18:31:00,
2013-09-28 14:36:00,67.9,54.4,30.25,NE,53,7.0,13.0,62,0.00,,---,0.00,VWS V14.01,2013-09-28 18:36:00,
2013-09-28 14:41:00,68.0,56.2,30.25,East,89,11.0,14.0,66,0.00,,---,0.00,VWS V14.01,2013-09-28 18:41:00,
2013-09-28 14:46:00,67.6,55.0,30.25,NE,54,8.0,15.0,64,0.00,,---,0.00,VWS V14.01,2013-09-28 18:46:00,
2013-09-28 14:51:00,67.6,55.8,30.25,North,11,9.0,15.0,66,0.00,,---,0.00,VWS V14.01,2013-09-28 18:51:00,
2013-09-28 14:56:00,67.6,56.3,30.25,NE,43,11.0,15.0,67,0.00,,---,0.00,VWS V14.01,2013-09-28 18:56:00,
2013-09-28 15:01:00,66.9,56.0,30.25,NNE,13,8.0,16.0,68,0.00,,---,0.00,VWS V14.01,2013-09-28 19:01:00,
2013-09-28 15:06:00,67.0,56.1,30.25,NE,48,5.0,14.0,68,0.00,,---,0.00,VWS V14.01,2013-09-28 19:06:00,
2013-09-28 15:11:00,67.2,56.3,30.25,NE,44,4.0,15.0,68,0.00,,---,0.00,VWS V14.01,2013-09-28 19:11:00,
2013-09-28 15:16:00,67.5,56.2,30.25,NNE,24,11.0,15.0,67,0.00,,---,0.00,VWS V14.01,2013-09-28 19:16:00,
2013-09-28 15:21:00,67.5,57.0,30.25,NE,46,9.0,15.0,69,0.00,,---,0.00,VWS V14.01,2013-09-28 19:21:00,
2013-09-28 15:26:00,67.6,56.7,30.24,East,79,10.0,15.0,68,0.00,,---,0.00,VWS V14.01,2013-09-28 19:26:00,
2013-09-28 15:31:00,67.5,57.4,30.24,NE,34,11.0,11.0,70,0.00,,---,0.00,VWS V14.01,2013-09-28 19:31:00,
2013-09-28 15:36:00,67.7,57.6,30.24,North,2,11.0,13.0,70,0.00,,---,0.00,VWS V14.01,2013-09-28 19:36:00,
2013-09-28 15:41:00,67.3,57.2,30.24,NNE,15,11.0,14.0,70,0.00,,---,0.00,VWS V14.01,2013-09-28 19:41:00,
2013-09-28 15:46:00,67.2,57.1,30.24,ENE,57,8.0,15.0,70,0.00,,---,0.00,VWS V14.01,2013-09-28 19:46:00,
2013-09-28 15:51:00,67.2,57.5,30.24,ENE,74,8.0,15.0,71,0.00,,---,0.00,VWS V14.01,2013-09-28 19:51:00,
2013-09-28 15:56:00,67.1,57.8,30.24,East,81,7.0,15.0,72,0.00,,---,0.00,VWS V14.01,2013-09-28 19:56:00,
2013-09-28 16:01:00,66.9,57.2,30.24,NNE,33,11.0,13.0,71,0.00,,---,0.00,VWS V14.01,2013-09-28 20:01:00,
2013-09-28 16:06:00,66.8,57.5,30.23,NNE,22,10.0,16.0,72,0.00,,---,0.00,VWS V14.01,2013-09-28 20:06:00,
2013-09-28 16:11:00,66.8,57.5,30.23,NNE,19,8.0,16.0,72,0.00,,---,0.00,VWS V14.01,2013-09-28 20:11:00,
2013-09-28 16:16:00,66.8,57.5,30.23,North,3,11.0,16.0,72,0.00,,---,0.00,VWS V14.01,2013-09-28 20:16:00,
2013-09-28 16:22:00,66.7,57.4,30.23,NE,46,11.0,16.0,72,0.00,,---,0.00,VWS V14.01,2013-09-28 20:22:00,
2013-09-28 16:27:00,66.7,57.4,30.23,NE,37,11.0,16.0,72,0.00,,---,0.00,VWS V14.01,2013-09-28 20:27:00,
2013-09-28 16:32:00,66.7,57.4,30.23,ENE,70,6.0,12.0,72,0.00,,---,0.00,VWS V14.01,2013-09-28 20:32:00,
2013-09-28 16:37:00,66.8,57.5,30.23,North,1,8.0,15.0,72,0.00,,---,0.00,VWS V14.01,2013-09-28 20:37:00,
2013-09-28 16:42:00,66.2,57.3,30.23,NNE,23,6.0,16.0,73,0.00,,---,0.00,VWS V14.01,2013-09-28 20:42:00,
2013-09-28 16:47:00,66.2,57.7,30.23,NE,34,6.0,16.0,74,0.00,,---,0.00,VWS V14.01,2013-09-28 20:47:00,
2013-09-28 16:52:00,66.3,57.8,30.23,NE,34,6.0,16.0,74,0.00,,---,0.00,VWS V14.01,2013-09-28 20:52:00,
2013-09-28 16:57:00,66.3,57.8,30.23,ENE,70,6.0,18.0,74,0.00,,---,0.00,VWS V14.01,2013-09-28 20:57:00,
2013-09-28 17:02:00,66.2,57.3,30.23,NNE,15,9.0,11.0,73,0.00,,---,0.00,VWS V14.01,2013-09-28 21:02:00,
2013-09-28 17:08:00,66.3,57.4,30.23,NE,46,6.0,14.0,73,0.00,,---,0.00,VWS V14.01,2013-09-28 21:08:00,
2013-09-28 17:13:00,66.2,57.3,30.23,NNE,27,12.0,14.0,73,0.00,,---,0.00,VWS V14.01,2013-09-28 21:13:00,
2013-09-28 17:18:00,66.2,57.3,30.23,ENE,63,7.0,14.0,73,0.00,,---,0.00,VWS V14.01,2013-09-28 21:18:00,
2013-09-28 17:23:00,66.0,57.1,30.23,ENE,65,4.0,14.0,73,0.00,,---,0.00,VWS V14.01,2013-09-28 21:23:00,
2013-09-28 17:28:00,66.1,57.6,30.23,NE,40,5.0,14.0,74,0.00,,---,0.00,VWS V14.01,2013-09-28 21:28:00,
2013-09-28 17:33:00,66.0,57.5,30.23,ENE,63,8.0,14.0,74,0.00,,---,0.00,VWS V14.01,2013-09-28 21:33:00,
2013-09-28 17:38:00,65.8,56.5,30.23,NNE,27,10.0,16.0,72,0.00,,---,0.00,VWS V14.01,2013-09-28 21:38:00,
2013-09-28 17:43:00,65.7,57.2,30.23,NE,37,8.0,16.0,74,0.00,,---,0.00,VWS V14.01,2013-09-28 21:43:00,
2013-09-28 17:48:00,65.6,57.5,30.23,ENE,65,8.0,16.0,75,0.00,,---,0.00,VWS V14.01,2013-09-28 21:48:00,
2013-09-28 17:53:00,65.4,57.3,30.22,ENE,57,8.0,16.0,75,0.00,,---,0.00,VWS V14.01,2013-09-28 21:53:00,
2013-09-28 17:58:00,65.4,56.5,30.22,NE,53,9.0,16.0,73,0.00,,---,0.00,VWS V14.01,2013-09-28 21:58:00,
2013-09-28 18:03:00,65.4,57.7,30.22,NE,53,3.0,11.0,76,0.00,,---,0.00,VWS V14.01,2013-09-28 22:03:00,
2013-09-28 18:08:00,65.4,57.7,30.23,North,354,9.0,12.0,76,0.00,,---,0.00,VWS V14.01,2013-09-28 22:08:00,
2013-09-28 18:13:00,65.3,57.5,30.23,East,94,11.0,15.0,76,0.00,,---,0.00,VWS V14.01,2013-09-28 22:13:00,
2013-09-28 18:18:00,65.1,57.0,30.23,ENE,63,6.0,15.0,75,0.00,,---,0.00,VWS V14.01,2013-09-28 22:18:00,
2013-09-28 18:23:00,65.1,57.4,30.23,NNE,23,4.0,15.0,76,0.00,,---,0.00,VWS V14.01,2013-09-28 22:23:00,
2013-09-28 18:28:00,65.1,57.7,30.23,ENE,64,7.0,15.0,77,0.00,,---,0.00,VWS V14.01,2013-09-28 22:28:00,
2013-09-28 18:33:00,65.0,57.6,30.23,NE,56,6.0,11.0,77,0.00,,---,0.00,VWS V14.01,2013-09-28 22:33:00,
2013-09-28 18:38:00,64.9,57.5,30.23,NNE,23,7.0,13.0,77,0.00,,---,0.00,VWS V14.01,2013-09-28 22:38:00,
2013-09-28 18:43:00,64.6,57.2,30.23,ENE,61,7.0,13.0,77,0.00,,---,0.00,VWS V14.01,2013-09-28 22:43:00,
2013-09-28 18:48:00,64.6,57.2,30.23,ENE,75,10.0,14.0,77,0.00,,---,0.00,VWS V14.01,2013-09-28 22:48:00,
2013-09-28 18:53:00,64.6,57.6,30.23,ENE,60,7.0,14.0,78,0.00,,---,0.00,VWS V14.01,2013-09-28 22:53:00,
2013-09-28 18:58:00,64.5,57.5,30.23,NE,49,9.0,14.0,78,0.00,,---,0.00,VWS V14.01,2013-09-28 22:58:00,
2013-09-28 19:03:00,64.5,57.5,30.23,ENE,70,8.0,12.0,78,0.00,,---,0.00,VWS V14.01,2013-09-28 23:03:00,
2013-09-28 19:08:00,64.5,57.1,30.22,ENE,72,9.0,12.0,77,0.00,,---,0.00,VWS V14.01,2013-09-28 23:08:00,
2013-09-28 19:13:00,64.6,57.6,30.22,ENE,69,6.0,13.0,78,0.00,,---,0.00,VWS V14.01,2013-09-28 23:13:00,
2013-09-28 19:18:00,64.6,58.0,30.22,East,86,4.0,13.0,79,0.00,,---,0.00,VWS V14.01,2013-09-28 23:18:00,
2013-09-28 19:23:00,64.5,57.8,30.23,ENE,68,8.0,13.0,79,0.00,,---,0.00,VWS V14.01,2013-09-28 23:23:00,
2013-09-28 19:28:00,64.4,57.4,30.23,NNE,20,5.0,14.0,78,0.00,,---,0.00,VWS V14.01,2013-09-28 23:28:00,
2013-09-28 19:33:00,64.5,57.5,30.23,NE,46,7.0,12.0,78,0.00,,---,0.00,VWS V14.01,2013-09-28 23:33:00,
2013-09-28 19:38:00,64.4,57.4,30.23,NNE,31,4.0,12.0,78,0.00,,---,0.00,VWS V14.01,2013-09-28 23:38:00,
2013-09-28 19:43:00,64.5,57.8,30.23,ENE,65,8.0,12.0,79,0.00,,---,0.00,VWS V14.01,2013-09-28 23:43:00,
2013-09-28 19:48:00,64.5,57.5,30.23,NE,40,9.0,13.0,78,0.00,,---,0.00,VWS V14.01,2013-09-28 23:48:00,
2013-09-28 19:53:00,64.5,57.5,30.23,North,355,5.0,13.0,78,0.00,,---,0.00,VWS V14.01,2013-09-28 23:53:00,
2013-09-28 19:58:00,64.5,57.5,30.23,NE,46,7.0,13.0,78,0.00,,---,0.00,VWS V14.01,2013-09-28 23:58:00,
2013-09-28 20:03:00,64.4,57.0,30.23,East,86,7.0,12.0,77,0.00,,---,0.00,VWS V14.01,2013-09-29 00:03:00,
2013-09-28 20:08:00,64.5,57.1,30.23,NE,56,12.0,13.0,77,0.00,,---,0.00,VWS V14.01,2013-09-29 00:08:00,
2013-09-28 20:13:00,64.6,57.6,30.23,ENE,74,9.0,13.0,78,0.00,,---,0.00,VWS V14.01,2013-09-29 00:13:00,
2013-09-28 20:18:00,64.5,57.5,30.23,ENE,76,9.0,13.0,78,0.00,,---,0.00,VWS V14.01,2013-09-29 00:18:00,
2013-09-28 20:23:00,64.6,58.0,30.23,NE,54,6.0,14.0,79,0.00,,---,0.00,VWS V14.01,2013-09-29 00:23:00,
2013-09-28 20:28:00,64.5,57.8,30.22,NE,56,10.0,14.0,79,0.00,,---,0.00,VWS V14.01,2013-09-29 00:28:00,
2013-09-28 20:33:00,64.5,57.8,30.22,SW,226,4.0,12.0,79,0.00,,---,0.00,VWS V14.01,2013-09-29 00:33:00,
2013-09-28 20:38:00,64.5,57.8,30.22,East,86,4.0,13.0,79,0.00,,---,0.00,VWS V14.01,2013-09-29 00:38:00,
2013-09-28 20:43:00,64.4,58.1,30.22,ENE,62,9.0,13.0,80,0.00,,---,0.00,VWS V14.01,2013-09-29 00:43:00,
2013-09-28 20:48:00,64.5,57.8,30.22,ENE,68,10.0,13.0,79,0.00,,---,0.00,VWS V14.01,2013-09-29 00:48:00,
2013-09-28 20:53:00,64.4,58.1,30.22,East,79,10.0,13.0,80,0.00,,---,0.00,VWS V14.01,2013-09-29 00:53:00,
2013-09-28 20:58:00,64.5,57.8,30.22,NE,56,8.0,15.0,79,0.00,,---,0.00,VWS V14.01,2013-09-29 00:58:00,
2013-09-28 21:03:00,64.5,57.8,30.22,SSE,158,5.0,12.0,79,0.00,,---,0.00,VWS V14.01,2013-09-29 01:03:00,
2013-09-28 21:08:00,64.4,57.8,30.22,SE,139,6.0,12.0,79,0.00,,---,0.00,VWS V14.01,2013-09-29 01:08:00,
2013-09-28 21:13:00,64.5,58.2,30.23,NE,51,8.0,12.0,80,0.00,,---,0.00,VWS V14.01,2013-09-29 01:13:00,
2013-09-28 21:18:00,64.5,58.2,30.23,ENE,59,13.0,14.0,80,0.00,,---,0.00,VWS V14.01,2013-09-29 01:18:00,
2013-09-28 21:23:00,64.5,58.2,30.22,ENE,75,8.0,14.0,80,0.00,,---,0.00,VWS V14.01,2013-09-29 01:23:00,
2013-09-28 21:28:00,64.5,58.2,30.22,ENE,63,11.0,14.0,80,0.00,,---,0.00,VWS V14.01,2013-09-29 01:28:00,
2013-09-28 21:33:00,64.5,58.5,30.22,ENE,58,14.0,14.0,81,0.00,,---,0.00,VWS V14.01,2013-09-29 01:33:00,
2013-09-28 21:38:00,64.5,58.5,30.22,NE,53,8.0,14.0,81,0.00,,---,0.00,VWS V14.01,2013-09-29 01:38:00,
2013-09-28 21:43:00,64.4,58.5,30.22,NE,47,10.0,14.0,81,0.00,,---,0.00,VWS V14.01,2013-09-29 01:43:00,
2013-09-28 21:48:00,64.4,58.5,30.22,NE,37,12.0,14.0,81,0.00,,---,0.00,VWS V14.01,2013-09-29 01:48:00,
2013-09-28 21:53:00,64.5,58.9,30.22,ENE,66,11.0,14.0,82,0.00,,---,0.00,VWS V14.01,2013-09-29 01:53:00,
2013-09-28 21:59:00,64.4,58.8,30.22,NNE,32,11.0,14.0,82,0.00,,---,0.00,VWS V14.01,2013-09-29 01:59:00,
2013-09-28 22:04:00,64.4,58.8,30.22,NNE,26,5.0,11.0,82,0.00,,---,0.00,VWS V14.01,2013-09-29 02:04:00,
2013-09-28 22:09:00,64.4,58.8,30.22,ENE,75,5.0,13.0,82,0.00,,---,0.00,VWS V14.01,2013-09-29 02:09:00,
2013-09-28 22:14:00,64.5,58.9,30.22,ENE,59,6.0,13.0,82,0.00,,---,0.00,VWS V14.01,2013-09-29 02:14:00,
2013-09-28 22:19:00,64.5,59.2,30.22,NNE,30,9.0,13.0,83,0.00,,---,0.00,VWS V14.01,2013-09-29 02:19:00,
2013-09-28 22:24:00,64.4,58.8,30.22,East,81,6.0,13.0,82,0.00,,---,0.00,VWS V14.01,2013-09-29 02:24:00,
2013-09-28 22:29:00,64.5,59.2,30.22,NE,53,5.0,13.0,83,0.00,,---,0.00,VWS V14.01,2013-09-29 02:29:00,
2013-09-28 22:34:00,64.4,58.8,30.22,ENE,70,8.0,12.0,82,0.00,,---,0.00,VWS V14.01,2013-09-29 02:34:00,
2013-09-28 22:39:00,64.5,58.5,30.21,ENE,62,9.0,13.0,81,0.00,,---,0.00,VWS V14.01,2013-09-29 02:39:00,
2013-09-28 22:44:00,64.6,59.0,30.21,East,86,11.0,14.0,82,0.00,,---,0.00,VWS V14.01,2013-09-29 02:44:00,
2013-09-28 22:49:00,64.7,59.1,30.21,ENE,60,3.0,14.0,82,0.00,,---,0.00,VWS V14.01,2013-09-29 02:49:00,
2013-09-28 22:54:00,64.7,59.1,30.21,ENE,68,5.0,14.0,82,0.00,,---,0.00,VWS V14.01,2013-09-29 02:54:00,
2013-09-28 22:59:00,64.7,59.1,30.21,NE,44,8.0,14.0,82,0.00,,---,0.00,VWS V14.01,2013-09-29 02:59:00,
2013-09-28 23:04:00,64.6,59.0,30.21,ENE,63,8.0,11.0,82,0.00,,---,0.00,VWS V14.01,2013-09-29 03:04:00,
2013-09-28 23:09:00,64.6,59.0,30.21,ENE,77,6.0,11.0,82,0.00,,---,0.00,VWS V14.01,2013-09-29 03:09:00,
2013-09-28 23:14:00,64.6,59.0,30.20,NE,45,6.0,11.0,82,0.00,,---,0.00,VWS V14.01,2013-09-29 03:14:00,
2013-09-28 23:19:00,64.7,58.7,30.20,NE,53,7.0,13.0,81,0.00,,---,0.00,VWS V14.01,2013-09-29 03:19:00,
2013-09-28 23:24:00,64.7,58.4,30.20,NE,37,11.0,13.0,80,0.00,,---,0.00,VWS V14.01,2013-09-29 03:24:00,
2013-09-28 23:29:00,64.9,58.6,30.20,ENE,61,13.0,14.0,80,0.00,,---,0.00,VWS V14.01,2013-09-29 03:29:00,
2013-09-28 23:34:00,64.9,58.2,30.20,ENE,64,14.0,14.0,79,0.00,,---,0.00,VWS V14.01,2013-09-29 03:34:00,
2013-09-28 23:39:00,65.0,59.0,30.20,ENE,60,13.0,14.0,81,0.00,,---,0.00,VWS V14.01,2013-09-29 03:39:00,
2013-09-28 23:44:00,65.1,58.8,30.20,NE,51,12.0,16.0,80,0.00,,---,0.00,VWS V14.01,2013-09-29 03:44:00,
2013-09-28 23:49:00,65.1,58.1,30.20,ENE,62,13.0,16.0,78,0.00,,---,0.00,VWS V14.01,2013-09-29 03:49:00,
2013-09-28 23:54:00,65.1,58.4,30.20,ENE,61,12.0,16.0,79,0.00,,---,0.00,VWS V14.01,2013-09-29 03:54:00,
2013-09-28 23:59:00,65.1,58.8,30.19,NE,51,10.0,16.0,80,0.00,,---,0.00,VWS V14.01,2013-09-29 03:59:00,